Location: Philomena
(55.1756°N, 111.6233°W)
Time: 09:33:36
(UTC+00:00)

PCSat - Pass Details

Date: 12 December 2023
Orbit: 784 x 791 km, 67.0° (Epoch: 23 February)

Event Time Altitude Azimuth Distance (km) Brightness Sun altitude
Exits shadow 10:36:34 15° 47° (NE) 2,010 12.1 -41.7°
Drops below altitude 10° 10:37:31 10° 45° (NE) 2,363 12.6 -41.6°
Sets 10:39:57 0° 43° (NE) 3,297 13.5 -41.3°
